Regional Weather Roundup
Issued by NWS

Home | Current Version | Previous Version | Text Only | Print | Product List | Glossary On
Versions: 1 2 3 4 5 6 7 8 9 10 11 12 13 14 15 16 17 18 19 20 21 22 23 24 25 26 27 28 29 30 31 32 33 34 35 36 37 38 39 40 41 42 43 44 45 46 47 48 49 50
000
ASUS43 KFSD 020410
RWRSD

WEATHER ROUNDUP FOR SOUTH DAKOTA
NATIONAL WEATHER SERVICE SIOUX FALLS SD
1100 PM CDT WED APR 01 2015

NOTE: "FAIR" INDICATES FEW OR NO CLOUDS BELOW 12,000 FEET WITH NO
SIGNIFICANT WEATHER AND/OR OBSTRUCTIONS TO VISIBILITY.


SDZ001>005-009-010-012>017-020500-
NORTHWEST AND NORTH CENTRAL SOUTH DAKOTA

CITY           SKY/WX    TMP DP  RH WIND       PRES   REMARKS
BUFFALO          N/A     33  14  45 W8        29.76S WCI  26
FAITH            N/A     36  10  34 W9        29.82R
MOBRIDGE       PTCLDY    41  25  53 NW7       29.74R
$$

SDZ012>016-024>037-041>051-057-063-072>074-020500-
SOUTHWEST AND SOUTH CENTRAL SOUTH DAKOTA

CITY           SKY/WX    TMP DP  RH WIND       PRES   REMARKS
RAPID CTY ARPT PTCLDY    38  14  37 W5        29.86R
PIERRE         MOCLDY    47  23  38 NW10      29.77S
CUSTER         PTCLDY    32   8  36 W6        29.88S WCI  26
ELLSWORTH AFB  PTCLDY    35  12  38 W9        29.85S WCI  28
PHILIP         CLOUDY    44  13  28 W8        29.82F
PINE RIDGE     CLOUDY    43  19  38 N6        29.86F
SPEARFISH      FAIR      39   9  28 W9        29.87S
WINNER         FAIR      52  20  28 NW13      29.76F
$$

SDZ004>011-016>023-039-040-020500-
NORTHEAST SOUTH DAKOTA

CITY           SKY/WX    TMP DP  RH WIND       PRES   REMARKS
ABERDEEN       PTCLDY    50  29  44 NW13      29.70R
WATERTOWN      PTCLDY    51  30  44 N17       29.68R
BROOKINGS      MOCLDY    52  30  43 NW13      29.67S
SISSETON         N/A     51  32  48 NW18      29.65R
$$

SDZ017-020-022-023-036>040-048>070-020500-
SOUTHEAST SOUTH DAKOTA

CITY           SKY/WX    TMP DP  RH WIND       PRES   REMARKS
SIOUX FALLS    CLOUDY    59  29  31 N18       29.66R
HURON          CLEAR     49  27  42 NW14      29.70R
CHAMBERLAIN    MOCLDY    51  24  34 NW14      29.74F
MITCHELL       PTCLDY    55  27  34 NW18      29.72R
YANKTON        CLOUDY    61  28  29 NW17      29.70R
$$

ABBREVIATIONS USED IN REMARKS
   TC - TEMPERATURE IN CELSIUS
  WCI - WIND CHILL INDEX
   HX - HEAT INDEX
  VSB - VISIBILITY



USA.gov is the U.S. government's official web portal to all federal, state and local government web resources and services.